Date String (YYYY-MM-DD hh:mm:ss) UTC,Instrument flags,absolute air pressure of the measurement (hPa),sample flow rate (lpm),inlet stack bypass flow (lpm),air temperature of the measurement (°C),ambient temperature measured by the external sensor (°C),aerosol sample conditioner tube jacket temperature (°C),OPC LED temperature (°C),internal box temperature (°C),relative humidity of the measurement (%),span deviation,mass concentration of particles derived from Lorenz-Mie calculation of OPC scattering (μg/m³),mass concentration of particles derived from Lorenz-Mie calculation of OPC scattering (μg/m³),mass concentration of particles derived from Lorenz-Mie calculation of OPC scattering (μg/m³)
DateTimeUTC,F1_M11,P_M11,Q1_M11,Q2_M11,T1_M11,T2_M11,T3_M11,T4_M11,T5_M11,U1_M11,ZSPAN_M11,X0_M11,X2_M11,X1_M11
2023-09-02 15:00:00,SystemResetWarning,0834.1,5.00,000.00,028.0,026.8,000.0,036.3,029.8,33.4,0000.0,0010.56,0004.25,0003.46
2023-09-02 15:01:00,SystemResetWarning,0834.1,4.99,000.00,028.0,026.2,000.0,036.3,029.6,33.2,0000.0,0010.54,0004.29,0003.45
2023-09-02 15:02:00,SystemResetWarning,0834.1,5.00,000.00,027.9,024.8,000.0,036.2,029.2,34.0,0000.0,0010.48,0004.30,0003.45
2023-09-02 15:03:00,SystemResetWarning,0834.1,5.00,000.00,027.8,024.3,000.0,036.1,029.1,33.9,0000.0,0010.62,0004.29,0003.46
2023-09-02 15:04:00,SystemResetWarning,0834.0,5.01,000.00,027.8,024.5,000.0,036.1,029.0,34.1,0000.0,0010.50,0004.25,0003.46
2023-09-02 15:05:00,SystemResetWarning,0834.1,5.01,000.00,027.7,024.8,000.0,036.1,029.1,34.3,0000.0,0011.04,0004.29,0003.46
2023-09-02 15:06:00,SystemResetWarning,0834.0,5.00,000.00,027.7,025.3,000.0,036.2,029.2,34.5,0000.0,0011.34,0004.27,0003.46
2023-09-02 15:07:00,SystemResetWarning,0834.1,5.00,000.00,027.8,025.7,000.0,036.2,029.4,34.6,0000.0,0011.16,0004.24,0003.46
2023-09-02 15:08:00,SystemResetWarning,0834.0,4.99,000.00,027.8,026.0,000.0,036.2,029.5,35.1,0000.0,0011.08,0004.21,0003.47
2023-09-02 15:09:00,SystemResetWarning,0834.1,4.99,000.00,028.0,026.3,000.0,036.2,029.7,34.5,0000.0,0010.94,0004.20,0003.47
2023-09-02 15:10:00,SystemResetWarning,0834.1,5.01,000.00,028.2,026.6,000.0,036.2,029.8,33.4,0000.0,0011.07,0004.22,0003.48
2023-09-02 15:11:00,SystemResetWarning,0834.1,5.01,000.00,028.3,026.8,000.0,036.3,029.8,32.4,0000.0,0010.78,0004.23,0003.49
2023-09-02 15:12:00,SystemResetWarning,0834.1,4.99,000.00,028.4,026.5,000.0,036.3,029.7,32.3,0000.0,0010.65,0004.23,0003.51
2023-09-02 15:13:00,SystemResetWarning,0834.1,5.00,000.00,028.3,025.1,000.0,036.2,029.2,33.3,0000.0,0010.49,0004.21,0003.52
2023-09-02 15:14:00,SystemResetWarning,0834.1,5.01,000.00,028.2,024.3,000.0,036.2,029.0,32.8,0000.0,0010.91,0004.21,0003.53
2023-09-02 15:15:00,SystemResetWarning,0834.1,5.01,000.00,028.1,024.4,000.0,036.2,029.0,32.9,0000.0,0011.29,0004.23,0003.54
2023-09-02 15:16:00,SystemResetWarning,0834.1,5.00,000.00,028.1,024.7,000.0,036.2,029.1,32.4,0000.0,0010.90,0004.20,0003.54
2023-09-02 15:17:00,SystemResetWarning,0834.1,5.00,000.00,028.1,025.2,000.0,036.3,029.2,32.4,0000.0,0010.21,0004.14,0003.54
2023-09-02 15:18:00,SystemResetWarning,0834.1,5.00,000.00,028.1,025.6,000.0,036.3,029.4,32.8,0000.0,0010.04,0004.18,0003.54
2023-09-02 15:19:00,SystemResetWarning,0834.1,5.00,000.00,028.1,025.9,000.0,036.3,029.5,32.8,0000.0,0010.55,0004.29,0003.54
2023-09-02 15:20:00,SystemResetWarning,0834.1,5.00,000.00,028.2,026.2,000.0,036.4,029.6,32.7,0000.0,0010.88,0004.33,0003.54
2023-09-02 15:21:00,SystemResetWarning,0834.1,5.00,000.00,028.2,026.5,000.0,036.4,029.7,33.2,0000.0,0011.36,0004.35,0003.55
2023-09-02 15:22:00,SystemResetWarning,0834.1,5.01,000.00,028.3,026.8,000.0,036.4,029.8,31.1,0000.0,0012.19,0004.33,0003.55
2023-09-02 15:23:00,SystemResetWarning,0834.2,4.99,000.00,028.3,026.7,000.0,036.4,029.8,30.8,0000.0,0011.95,0004.27,0003.54
2023-09-02 15:24:00,SystemResetWarning,0834.1,4.98,000.00,028.3,025.4,000.0,036.4,029.4,31.0,0000.0,0011.83,0004.29,0003.54
2023-09-02 15:25:00,SystemResetWarning,0834.1,5.01,000.00,028.2,024.5,000.0,036.3,029.1,30.1,0000.0,0011.17,0004.29,0003.52
2023-09-02 15:26:00,SystemResetWarning,0834.1,5.02,000.00,028.1,024.6,000.0,036.3,029.1,31.1,0000.0,0010.65,0004.27,0003.51
2023-09-02 15:27:00,SystemResetWarning,0834.1,5.00,000.00,028.0,024.9,000.0,036.3,029.1,30.4,0000.0,0011.03,0004.29,0003.51
2023-09-02 15:28:00,SystemResetWarning,0834.1,5.00,000.00,028.0,025.3,000.0,036.3,029.3,29.5,0000.0,0011.03,0004.35,0003.51
2023-09-02 15:29:00,SystemResetWarning,0834.1,5.00,000.00,028.0,025.6,000.0,036.3,029.4,29.6,0000.0,0011.19,0004.32,0003.52
2023-09-02 15:30:00,SystemResetWarning,0834.1,4.98,000.00,028.1,026.0,000.0,036.4,029.5,28.9,0000.0,0011.00,0004.28,0003.52
2023-09-02 15:31:00,SystemResetWarning,0834.1,5.00,000.00,028.1,026.3,000.0,036.4,029.6,29.4,0000.0,0010.64,0004.26,0003.54
2023-09-02 15:32:00,SystemResetWarning,0834.1,5.00,000.00,028.2,026.6,000.0,036.4,029.7,30.2,0000.0,0010.34,0004.25,0003.54
2023-09-02 15:33:00,SystemResetWarning,0834.1,5.01,000.00,028.2,026.8,000.0,036.4,029.8,30.8,0000.0,0009.97,0004.30,0003.56
2023-09-02 15:34:00,SystemResetWarning,0834.1,5.01,000.00,028.2,026.4,000.0,036.4,029.6,29.9,0000.0,0010.22,0004.36,0003.57
2023-09-02 15:35:00,SystemResetWarning,0834.1,4.98,000.00,028.1,025.0,000.0,036.3,029.2,29.9,0000.0,0010.46,0004.36,0003.59
2023-09-02 15:36:00,SystemResetWarning,0834.2,5.01,000.00,028.0,024.5,000.0,036.3,029.1,28.8,0000.0,0010.64,0004.38,0003.62
2023-09-02 15:37:00,SystemResetWarning,0834.1,5.00,000.00,028.0,024.7,000.0,036.2,029.1,30.0,0000.0,0011.03,0004.47,0003.64
2023-09-02 15:38:00,SystemResetWarning,0834.2,4.99,000.00,027.9,025.0,000.0,036.3,029.2,31.4,0000.0,0011.14,0004.53,0003.67
2023-09-02 15:39:00,SystemResetWarning,0834.2,5.00,000.00,027.9,025.4,000.0,036.3,029.3,31.0,0000.0,0011.18,0004.53,0003.69
2023-09-02 15:40:00,SystemResetWarning,0834.2,5.00,000.00,028.0,025.8,000.0,036.3,029.4,30.5,0000.0,0011.01,0004.57,0003.71
2023-09-02 15:41:00,SystemResetWarning,0834.4,5.00,000.00,028.0,026.1,000.0,036.3,029.5,31.8,0000.0,0011.26,0004.58,0003.71
2023-09-02 15:42:00,SystemResetWarning,0834.4,5.00,000.00,028.1,026.4,000.0,036.3,029.6,31.1,0000.0,0011.24,0004.60,0003.71
2023-09-02 15:43:00,SystemResetWarning,0834.5,5.00,000.00,028.1,026.7,000.0,036.4,029.7,29.3,0000.0,0011.26,0004.66,0003.72
2023-09-02 15:44:00,SystemResetWarning,0834.3,4.98,000.00,028.2,026.4,000.0,036.3,029.7,29.5,0000.0,0011.41,0004.68,0003.71
2023-09-02 15:45:00,SystemResetWarning,0834.4,5.00,000.00,028.1,025.1,000.0,036.3,029.2,29.8,0000.0,0012.19,0004.72,0003.71
2023-09-02 15:46:00,SystemResetWarning,0834.2,5.00,000.00,027.9,024.4,000.0,036.2,029.1,29.3,0000.0,0012.03,0004.71,0003.71
2023-09-02 15:47:00,SystemResetWarning,0834.3,5.01,000.00,027.9,024.6,000.0,036.2,029.1,29.8,0000.0,0011.74,0004.70,0003.71
2023-09-02 15:48:00,SystemResetWarning,0834.2,5.01,000.00,027.8,024.9,000.0,036.2,029.1,30.1,0000.0,0011.69,0004.66,0003.70
2023-09-02 15:49:00,SystemResetWarning,0834.4,5.00,000.00,027.8,025.3,000.0,036.2,029.3,30.5,0000.0,0011.60,0004.60,0003.70
2023-09-02 15:50:00,SystemResetWarning,0834.4,4.99,000.00,027.9,025.7,000.0,036.2,029.4,29.4,0000.0,0011.96,0004.61,0003.70
2023-09-02 15:51:00,SystemResetWarning,0834.5,4.99,000.00,027.9,026.1,000.0,036.2,029.5,29.0,0000.0,0012.00,0004.57,0003.68
2023-09-02 15:52:00,SystemResetWarning,0834.4,5.00,000.00,028.0,026.4,000.0,036.3,029.6,28.4,0000.0,0012.15,0004.55,0003.67
2023-09-02 15:53:00,SystemResetWarning,0834.4,5.00,000.00,028.0,026.6,000.0,036.3,029.7,29.4,0000.0,0012.60,0004.52,0003.66
2023-09-02 15:54:00,SystemResetWarning,0834.2,5.01,000.00,028.1,026.6,000.0,036.3,029.7,28.1,0000.0,0013.07,0004.48,0003.66
2023-09-02 15:55:00,SystemResetWarning,0834.2,4.98,000.00,028.0,025.4,000.0,036.2,029.3,28.9,0000.0,0013.24,0004.46,0003.67
2023-09-02 15:56:00,SystemResetWarning,0834.2,5.01,000.00,027.9,024.6,000.0,036.2,029.0,31.6,0000.0,0013.06,0004.47,0003.67
2023-09-02 15:57:00,SystemResetWarning,0834.2,5.01,000.00,027.8,024.8,000.0,036.1,029.1,30.2,0000.0,0012.87,0004.51,0003.68
2023-09-02 15:58:00,SystemResetWarning,0834.2,5.00,000.00,027.8,025.1,000.0,036.1,029.1,29.1,0000.0,0013.55,0004.51,0003.68
2023-09-02 15:59:00,SystemResetWarning,0834.3,5.00,000.00,027.8,025.5,000.0,036.2,029.3,29.3,0000.0,0014.34,0004.52,0003.68
